カタログに戻る

STARLINK-31153

運用中通信VLEO
NORAD 59044·PAYLOAD·🇺🇸 United States

打ち上げ Feb 25, 2024 から Cape Canaveral Space Force Station

Loading…

次のパス (今後24時間)

TLE

最新Source: CelesTrak SupGP

元期: Sep 15, 2026, 03:01 UTC

1 59044C 24038X   26258.12618056 -.00016910  00000+0 -61227-3 0  2588
2 59044  43.0020  33.6206 0001575 272.2637   3.7170 15.27597119    16

AllMySatでSTARLINK-31153をリアルタイム追跡

Download on the App Store